Time,TemperatureF,DewpointF,PressureIn,WindDirection,WindDirectionDegrees,WindSpeedMPH,WindSpeedGustMPH,Humidity,HourlyPrecipIn,Conditions,Clouds,dailyrainin,SoftwareType,DateUTC
2013-01-14 00:03:00,27.4,25.4,30.32,SSE,158,0.0,0.0,92,0.00,,,0.00,WUHU216HW,2013-01-14 08:03:00,
2013-01-14 00:08:00,27.4,25.4,30.32,SSE,158,0.0,0.0,92,0.00,,,0.00,WUHU216HW,2013-01-14 08:08:00,
2013-01-14 00:13:00,27.4,25.4,30.32,SSE,158,0.0,0.9,92,0.00,,,0.00,WUHU216HW,2013-01-14 08:13:00,
2013-01-14 00:18:00,27.4,25.4,30.32,SSE,158,0.0,0.9,92,0.00,,,0.00,WUHU216HW,2013-01-14 08:18:00,
2013-01-14 00:23:00,27.4,25.4,30.31,SSE,158,0.0,0.2,92,0.00,,,0.00,WUHU216HW,2013-01-14 08:23:00,
2013-01-14 00:28:00,27.4,25.4,30.31,SSE,158,0.0,0.0,92,0.00,,,0.00,WUHU216HW,2013-01-14 08:28:00,
2013-01-14 00:33:00,27.4,25.4,30.31,SSE,158,0.0,0.0,92,0.00,,,0.00,WUHU216HW,2013-01-14 08:33:00,
2013-01-14 00:38:00,27.4,25.4,30.32,SSE,158,1.1,1.3,92,0.00,,,0.00,WUHU216HW,2013-01-14 08:38:00,
2013-01-14 00:43:00,27.5,25.7,30.32,SSE,158,1.1,1.8,93,0.00,,,0.00,WUHU216HW,2013-01-14 08:43:00,
2013-01-14 00:48:00,27.5,25.7,30.32,SSE,158,0.0,1.8,93,0.00,,,0.00,WUHU216HW,2013-01-14 08:48:00,
2013-01-14 00:53:00,27.5,25.7,30.31,SSE,158,0.0,1.1,93,0.00,,,0.00,WUHU216HW,2013-01-14 08:53:00,
2013-01-14 00:58:00,27.5,25.6,30.31,SSE,158,0.9,1.1,92,0.00,,,0.00,WUHU216HW,2013-01-14 08:58:00,
2013-01-14 01:03:00,27.5,25.6,30.31,SSE,158,0.0,1.1,92,0.00,,,0.00,WUHU216HW,2013-01-14 09:03:00,
2013-01-14 01:08:00,27.5,25.6,30.31,SSE,158,0.0,0.9,92,0.00,,,0.00,WUHU216HW,2013-01-14 09:08:00,
2013-01-14 01:13:00,27.5,25.6,30.32,SSE,158,0.0,0.0,92,0.00,,,0.00,WUHU216HW,2013-01-14 09:13:00,
2013-01-14 01:18:00,27.7,25.8,30.32,SSE,158,0.0,0.0,92,0.00,,,0.00,WUHU216HW,2013-01-14 09:18:00,
2013-01-14 01:23:00,27.7,25.8,30.32,SSE,158,0.0,0.0,92,0.00,,,0.00,WUHU216HW,2013-01-14 09:23:00,
2013-01-14 01:28:00,27.7,25.8,30.32,SSE,158,0.0,0.0,92,0.00,,,0.00,WUHU216HW,2013-01-14 09:28:00,
2013-01-14 01:33:00,27.7,25.8,30.32,SSE,158,0.7,0.7,92,0.00,,,0.00,WUHU216HW,2013-01-14 09:33:00,
2013-01-14 01:38:00,27.7,25.8,30.32,SSE,158,0.0,0.7,92,0.00,,,0.00,WUHU216HW,2013-01-14 09:38:00,
2013-01-14 01:43:00,27.7,25.8,30.32,SSE,158,0.4,0.7,92,0.00,,,0.00,WUHU216HW,2013-01-14 09:43:00,
2013-01-14 01:48:00,27.7,25.8,30.32,SSE,158,0.0,0.7,92,0.00,,,0.00,WUHU216HW,2013-01-14 09:48:00,
2013-01-14 01:53:00,27.9,25.9,30.32,SSE,158,0.9,0.9,92,0.00,,,0.00,WUHU216HW,2013-01-14 09:53:00,
2013-01-14 01:58:00,27.9,25.9,30.32,SSE,158,0.0,0.9,92,0.00,,,0.00,WUHU216HW,2013-01-14 09:58:00,
2013-01-14 02:03:00,27.9,25.9,30.32,SSE,158,0.0,0.7,92,0.00,,,0.00,WUHU216HW,2013-01-14 10:03:00,
2013-01-14 02:08:00,27.9,25.9,30.33,SSE,158,0.9,0.9,92,0.00,,,0.00,WUHU216HW,2013-01-14 10:08:00,
2013-01-14 02:13:00,28.1,26.1,30.33,SSE,158,0.0,1.1,92,0.00,,,0.00,WUHU216HW,2013-01-14 10:13:00,
2013-01-14 02:18:00,28.1,26.1,30.33,SSE,158,0.0,1.1,92,0.00,,,0.00,WUHU216HW,2013-01-14 10:18:00,
2013-01-14 02:23:00,28.1,26.1,30.33,SSE,158,0.0,0.0,92,0.00,,,0.00,WUHU216HW,2013-01-14 10:23:00,
2013-01-14 02:28:00,28.1,26.1,30.33,SSE,158,0.0,0.0,92,0.00,,,0.00,WUHU216HW,2013-01-14 10:28:00,
2013-01-14 02:33:00,28.3,26.5,30.33,SSE,158,0.4,0.4,93,0.00,,,0.00,WUHU216HW,2013-01-14 10:33:00,
2013-01-14 02:38:00,28.3,26.3,30.32,SSE,158,0.2,1.1,92,0.00,,,0.00,WUHU216HW,2013-01-14 10:38:00,
2013-01-14 02:43:00,28.3,26.3,30.32,SSE,158,0.0,1.1,92,0.00,,,0.00,WUHU216HW,2013-01-14 10:43:00,
2013-01-14 02:48:00,28.3,26.3,30.33,SSE,158,0.0,0.2,92,0.00,,,0.00,WUHU216HW,2013-01-14 10:48:00,
2013-01-14 02:53:00,28.3,26.3,30.32,SSE,158,0.7,0.9,92,0.00,,,0.00,WUHU216HW,2013-01-14 10:53:00,
2013-01-14 02:58:00,28.4,26.5,30.32,SSE,158,0.2,0.9,92,0.00,,,0.00,WUHU216HW,2013-01-14 10:58:00,
2013-01-14 03:03:00,28.4,26.5,30.32,SSE,158,0.0,0.9,92,0.00,,,0.00,WUHU216HW,2013-01-14 11:03:00,
2013-01-14 03:08:00,28.4,26.5,30.32,SSE,158,0.2,1.1,92,0.00,,,0.00,WUHU216HW,2013-01-14 11:08:00,
2013-01-14 03:13:00,28.4,26.5,30.32,SSE,158,0.0,1.3,92,0.00,,,0.00,WUHU216HW,2013-01-14 11:13:00,
2013-01-14 03:18:00,28.4,26.6,30.33,SSE,158,0.0,1.3,93,0.00,,,0.00,WUHU216HW,2013-01-14 11:18:00,
2013-01-14 03:23:00,28.4,26.6,30.33,SSE,158,0.9,1.1,93,0.00,,,0.00,WUHU216HW,2013-01-14 11:23:00,
2013-01-14 03:28:00,28.6,26.8,30.33,SSE,158,0.0,1.1,93,0.00,,,0.00,WUHU216HW,2013-01-14 11:28:00,
2013-01-14 03:33:00,28.6,26.7,30.33,SSE,158,0.2,1.1,92,0.00,,,0.00,WUHU216HW,2013-01-14 11:33:00,
2013-01-14 03:38:00,28.6,26.7,30.33,SSE,158,0.0,0.7,92,0.00,,,0.00,WUHU216HW,2013-01-14 11:38:00,
2013-01-14 03:43:00,28.6,26.7,30.33,SSE,158,0.0,0.2,92,0.00,,,0.00,WUHU216HW,2013-01-14 11:43:00,
2013-01-14 03:48:00,28.6,26.7,30.33,SSE,158,0.0,0.0,92,0.00,,,0.00,WUHU216HW,2013-01-14 11:48:00,
2013-01-14 03:53:00,28.6,26.7,30.33,SSE,158,0.0,0.0,92,0.00,,,0.00,WUHU216HW,2013-01-14 11:53:00,
2013-01-14 03:58:00,28.6,26.7,30.33,SSE,158,0.0,0.0,92,0.00,,,0.00,WUHU216HW,2013-01-14 11:58:00,
2013-01-14 04:03:00,28.6,26.7,30.33,SSE,158,0.0,0.0,92,0.00,,,0.00,WUHU216HW,2013-01-14 12:03:00,
2013-01-14 04:08:00,28.6,26.7,30.33,SSE,158,0.0,0.0,92,0.00,,,0.00,WUHU216HW,2013-01-14 12:08:00,
2013-01-14 04:13:00,28.6,26.7,30.33,SSE,158,0.0,0.4,92,0.00,,,0.00,WUHU216HW,2013-01-14 12:13:00,
2013-01-14 04:18:00,28.6,26.7,30.32,SSE,158,0.0,0.4,92,0.00,,,0.00,WUHU216HW,2013-01-14 12:18:00,
2013-01-14 04:23:00,28.6,26.7,30.33,SSE,158,0.0,0.2,92,0.00,,,0.00,WUHU216HW,2013-01-14 12:23:00,
2013-01-14 04:28:00,28.6,26.7,30.32,SSE,158,0.0,0.0,92,0.00,,,0.00,WUHU216HW,2013-01-14 12:28:00,
2013-01-14 04:33:00,28.6,26.7,30.32,SSE,158,0.0,0.0,92,0.00,,,0.00,WUHU216HW,2013-01-14 12:33:00,
2013-01-14 04:38:00,28.6,26.7,30.32,SSE,158,0.0,0.0,92,0.00,,,0.00,WUHU216HW,2013-01-14 12:38:00,
2013-01-14 04:43:00,28.6,26.7,30.32,SSE,158,0.0,0.0,92,0.00,,,0.00,WUHU216HW,2013-01-14 12:43:00,
2013-01-14 04:48:00,28.6,26.7,30.32,SSE,158,0.0,0.0,92,0.00,,,0.00,WUHU216HW,2013-01-14 12:48:00,
2013-01-14 04:53:00,28.6,26.7,30.32,SSE,158,0.0,0.0,92,0.00,,,0.00,WUHU216HW,2013-01-14 12:53:00,
2013-01-14 04:58:00,28.6,26.7,30.32,SSE,158,0.0,0.0,92,0.00,,,0.00,WUHU216HW,2013-01-14 12:58:00,
2013-01-14 05:03:00,28.6,26.7,30.32,SSE,158,0.0,0.0,92,0.00,,,0.00,WUHU216HW,2013-01-14 13:03:00,
2013-01-14 05:08:00,28.6,26.7,30.32,SSE,158,0.0,0.0,92,0.00,,,0.00,WUHU216HW,2013-01-14 13:08:00,
2013-01-14 05:13:00,28.6,26.7,30.32,SSE,158,0.0,0.0,92,0.00,,,0.00,WUHU216HW,2013-01-14 13:13:00,
2013-01-14 05:18:00,28.6,26.8,30.32,SSE,158,0.0,0.0,93,0.00,,,0.00,WUHU216HW,2013-01-14 13:18:00,
2013-01-14 05:23:00,28.8,27.0,30.32,SSE,158,0.0,0.0,93,0.00,,,0.00,WUHU216HW,2013-01-14 13:23:00,
2013-01-14 05:28:00,28.8,27.0,30.33,SSE,158,0.0,0.0,93,0.00,,,0.00,WUHU216HW,2013-01-14 13:28:00,
2013-01-14 05:33:00,28.8,27.0,30.33,SSE,158,0.0,0.0,93,0.00,,,0.00,WUHU216HW,2013-01-14 13:33:00,
2013-01-14 05:38:00,28.8,27.0,30.33,SSE,158,0.0,0.0,93,0.00,,,0.00,WUHU216HW,2013-01-14 13:38:00,
2013-01-14 05:43:00,28.8,27.0,30.33,SSE,158,0.0,0.0,93,0.00,,,0.00,WUHU216HW,2013-01-14 13:43:00,
2013-01-14 05:48:00,28.8,26.8,30.33,SSE,158,0.7,0.9,92,0.00,,,0.00,WUHU216HW,2013-01-14 13:48:00,
2013-01-14 05:53:00,28.8,26.8,30.33,SSE,158,0.0,0.9,92,0.00,,,0.00,WUHU216HW,2013-01-14 13:53:00,
2013-01-14 05:58:00,28.8,26.8,30.33,SSE,158,0.0,0.4,92,0.00,,,0.00,WUHU216HW,2013-01-14 13:58:00,
2013-01-14 06:03:00,28.8,26.8,30.34,SSE,158,0.0,0.0,92,0.00,,,0.00,WUHU216HW,2013-01-14 14:03:00,
2013-01-14 06:08:00,28.8,26.8,30.33,SSE,158,0.0,0.0,92,0.00,,,0.00,WUHU216HW,2013-01-14 14:08:00,
2013-01-14 06:13:00,28.8,26.8,30.33,SSE,158,0.0,0.0,92,0.00,,,0.00,WUHU216HW,2013-01-14 14:13:00,
2013-01-14 06:18:00,28.8,26.8,30.33,SSE,158,0.0,0.0,92,0.00,,,0.00,WUHU216HW,2013-01-14 14:18:00,
2013-01-14 06:23:00,28.8,27.0,30.33,SSE,158,0.0,0.0,93,0.00,,,0.00,WUHU216HW,2013-01-14 14:23:00,
2013-01-14 06:28:00,28.8,27.0,30.34,SSE,158,0.0,0.0,93,0.00,,,0.00,WUHU216HW,2013-01-14 14:28:00,
2013-01-14 06:33:00,29.0,27.2,30.34,SSE,158,0.0,0.0,93,0.00,,,0.00,WUHU216HW,2013-01-14 14:33:00,
2013-01-14 06:38:00,29.0,27.2,30.35,SSE,158,0.0,0.0,93,0.00,,,0.00,WUHU216HW,2013-01-14 14:38:00,
2013-01-14 06:43:00,29.0,27.0,30.34,SSE,158,0.0,0.0,92,0.00,,,0.00,WUHU216HW,2013-01-14 14:43:00,
2013-01-14 06:48:00,29.0,27.0,30.34,SSE,158,0.0,0.0,92,0.00,,,0.00,WUHU216HW,2013-01-14 14:48:00,
2013-01-14 06:53:00,29.0,27.2,30.33,SSE,158,0.0,0.0,93,0.00,,,0.00,WUHU216HW,2013-01-14 14:53:00,
2013-01-14 06:58:00,29.0,27.2,30.33,SSE,158,0.0,0.0,93,0.00,,,0.00,WUHU216HW,2013-01-14 14:58:00,
2013-01-14 07:03:00,29.2,27.4,30.33,SSE,158,0.4,0.7,93,0.00,,,0.00,WUHU216HW,2013-01-14 15:03:00,
2013-01-14 07:08:00,29.2,27.2,30.34,SSE,158,0.0,0.7,92,0.00,,,0.00,WUHU216HW,2013-01-14 15:08:00,
2013-01-14 07:13:00,29.2,27.4,30.34,SSE,158,0.0,0.7,93,0.00,,,0.00,WUHU216HW,2013-01-14 15:13:00,
2013-01-14 07:18:00,29.2,27.4,30.34,SSE,158,0.0,0.0,93,0.00,,,0.00,WUHU216HW,2013-01-14 15:18:00,
2013-01-14 07:23:00,29.2,27.4,30.34,SSE,158,0.0,0.0,93,0.00,,,0.00,WUHU216HW,2013-01-14 15:23:00,
2013-01-14 07:28:00,29.2,27.2,30.34,SSE,158,0.0,0.0,92,0.00,,,0.00,WUHU216HW,2013-01-14 15:28:00,
2013-01-14 07:33:00,29.2,27.2,30.34,SSE,158,0.0,0.0,92,0.00,,,0.00,WUHU216HW,2013-01-14 15:33:00,
2013-01-14 07:38:00,29.2,27.2,30.34,SSE,158,0.0,0.0,92,0.00,,,0.00,WUHU216HW,2013-01-14 15:38:00,
2013-01-14 07:43:00,29.2,27.4,30.34,SSE,158,0.0,0.9,93,0.00,,,0.00,WUHU216HW,2013-01-14 15:43:00,
2013-01-14 07:48:00,29.2,27.2,30.35,SSE,158,0.0,0.9,92,0.00,,,0.00,WUHU216HW,2013-01-14 15:48:00,
2013-01-14 07:53:00,29.2,27.4,30.35,SSE,158,0.0,0.0,93,0.00,,,0.00,WUHU216HW,2013-01-14 15:53:00,
2013-01-14 07:58:00,29.2,27.4,30.35,SSE,158,0.2,0.2,93,0.00,,,0.00,WUHU216HW,2013-01-14 15:58:00,
2013-01-14 08:03:00,29.2,27.4,30.35,SSE,158,0.0,0.2,93,0.00,,,0.00,WUHU216HW,2013-01-14 16:03:00,
2013-01-14 08:08:00,29.3,27.5,30.35,SSE,158,0.0,0.2,93,0.00,,,0.00,WUHU216HW,2013-01-14 16:08:00,
2013-01-14 08:13:00,29.3,27.5,30.35,SSE,158,0.0,0.0,93,0.00,,,0.00,WUHU216HW,2013-01-14 16:13:00,
2013-01-14 08:18:00,29.3,27.5,30.35,SSE,158,0.0,0.0,93,0.00,,,0.00,WUHU216HW,2013-01-14 16:18:00,
2013-01-14 08:23:00,29.3,27.5,30.35,SSE,158,0.0,0.0,93,0.00,,,0.00,WUHU216HW,2013-01-14 16:23:00,
2013-01-14 08:28:00,29.3,27.4,30.35,SSE,158,0.0,0.0,92,0.00,,,0.00,WUHU216HW,2013-01-14 16:28:00,
2013-01-14 08:33:00,29.5,27.6,30.35,SSE,158,0.0,0.0,92,0.00,,,0.00,WUHU216HW,2013-01-14 16:33:00,
2013-01-14 08:38:00,29.5,27.6,30.35,SSE,158,0.0,0.0,92,0.00,,,0.00,WUHU216HW,2013-01-14 16:38:00,
2013-01-14 08:43:00,29.7,27.9,30.35,SSE,158,0.0,0.0,93,0.00,,,0.00,WUHU216HW,2013-01-14 16:43:00,
2013-01-14 08:48:00,29.7,27.9,30.35,SSE,158,0.0,0.0,93,0.00,,,0.00,WUHU216HW,2013-01-14 16:48:00,
2013-01-14 08:53:00,29.9,27.9,30.35,SSE,158,0.0,0.0,92,0.00,,,0.00,WUHU216HW,2013-01-14 16:53:00,
2013-01-14 08:58:00,30.1,28.1,30.35,SSE,158,0.0,0.0,92,0.00,,,0.00,WUHU216HW,2013-01-14 16:58:00,
2013-01-14 09:03:00,30.2,28.3,30.35,SSE,158,0.0,0.0,92,0.00,,,0.00,WUHU216HW,2013-01-14 17:03:00,
2013-01-14 09:08:00,30.4,28.5,30.35,SSE,158,0.0,0.4,92,0.00,,,0.00,WUHU216HW,2013-01-14 17:08:00,
2013-01-14 09:13:00,30.6,28.6,30.35,SSE,158,0.0,0.4,92,0.00,,,0.00,WUHU216HW,2013-01-14 17:13:00,
2013-01-14 09:18:00,30.6,28.6,30.35,SSE,158,0.0,0.4,92,0.00,,,0.00,WUHU216HW,2013-01-14 17:18:00,
2013-01-14 09:23:00,30.6,28.6,30.35,SSE,158,0.0,0.4,92,0.00,,,0.00,WUHU216HW,2013-01-14 17:23:00,
2013-01-14 09:28:00,30.8,28.8,30.35,SSE,158,0.0,0.0,92,0.00,,,0.00,WUHU216HW,2013-01-14 17:28:00,
2013-01-14 09:33:00,31.0,29.0,30.36,SSE,158,0.0,0.4,92,0.00,,,0.00,WUHU216HW,2013-01-14 17:33:00,
2013-01-14 09:38:00,31.1,29.2,30.35,SSE,158,0.4,0.4,92,0.00,,,0.00,WUHU216HW,2013-01-14 17:38:00,
2013-01-14 09:43:00,31.3,29.4,30.35,SSE,158,0.0,0.7,92,0.00,,,0.00,WUHU216HW,2013-01-14 17:43:00,
2013-01-14 09:48:00,31.5,29.5,30.35,SSE,158,0.0,0.7,92,0.00,,,0.00,WUHU216HW,2013-01-14 17:48:00,
2013-01-14 09:53:00,31.7,29.7,30.35,SSE,158,1.1,1.1,92,0.00,,,0.00,WUHU216HW,2013-01-14 17:53:00,
2013-01-14 09:58:00,31.9,29.9,30.35,SSE,158,0.0,1.1,92,0.00,,,0.00,WUHU216HW,2013-01-14 17:58:00,
2013-01-14 10:03:00,32.0,30.1,30.35,SSE,158,0.0,1.1,92,0.00,,,0.00,WUHU216HW,2013-01-14 18:03:00,
2013-01-14 10:08:00,32.2,30.2,30.35,SSE,158,0.0,0.4,92,0.00,,,0.00,WUHU216HW,2013-01-14 18:08:00,
2013-01-14 10:13:00,32.4,30.3,30.35,SSE,158,0.2,0.9,92,0.00,,,0.00,WUHU216HW,2013-01-14 18:13:00,
2013-01-14 10:18:00,32.4,30.3,30.35,SSE,158,0.4,0.9,92,0.00,,,0.00,WUHU216HW,2013-01-14 18:18:00,
2013-01-14 10:23:00,32.6,30.5,30.35,SSE,158,1.1,1.1,92,0.00,,,0.00,WUHU216HW,2013-01-14 18:23:00,
2013-01-14 10:28:00,32.6,30.2,30.36,SSE,158,1.8,1.8,91,0.00,,,0.00,WUHU216HW,2013-01-14 18:28:00,
2013-01-14 10:33:00,32.6,30.0,30.36,SSE,158,0.0,2.0,90,0.00,,,0.00,WUHU216HW,2013-01-14 18:33:00,
2013-01-14 10:38:00,32.8,30.2,30.36,SSE,158,0.0,2.0,90,0.00,,,0.00,WUHU216HW,2013-01-14 18:38:00,
2013-01-14 10:43:00,32.8,30.2,30.36,SSE,158,0.0,0.4,90,0.00,,,0.00,WUHU216HW,2013-01-14 18:43:00,
2013-01-14 10:48:00,32.9,30.1,30.36,SSE,158,0.0,0.0,89,0.00,,,0.00,WUHU216HW,2013-01-14 18:48:00,
2013-01-14 10:53:00,33.1,30.3,30.36,SSE,158,0.0,0.0,89,0.00,,,0.00,WUHU216HW,2013-01-14 18:53:00,
2013-01-14 10:58:00,33.3,30.3,30.36,SSE,158,0.0,0.0,89,0.00,,,0.00,WUHU216HW,2013-01-14 18:58:00,
2013-01-14 11:03:00,33.5,30.2,30.36,SSE,158,0.0,0.0,88,0.00,,,0.00,WUHU216HW,2013-01-14 19:03:00,
2013-01-14 11:08:00,33.7,30.7,30.35,South,180,0.7,0.7,89,0.00,,,0.00,WUHU216HW,2013-01-14 19:08:00,
2013-01-14 11:13:00,33.8,30.6,30.35,SSW,203,0.0,1.1,88,0.00,,,0.00,WUHU216HW,2013-01-14 19:13:00,
2013-01-14 11:18:00,34.0,30.4,30.35,SSW,203,0.9,1.1,87,0.00,,,0.00,WUHU216HW,2013-01-14 19:18:00,
2013-01-14 11:23:00,34.0,30.4,30.35,SSW,203,0.7,1.1,87,0.00,,,0.00,WUHU216HW,2013-01-14 19:23:00,
2013-01-14 11:28:00,34.0,30.2,30.35,South,180,0.0,1.6,86,0.00,,,0.00,WUHU216HW,2013-01-14 19:28:00,
2013-01-14 11:33:00,34.2,30.3,30.35,SSW,203,0.7,1.6,86,0.00,,,0.00,WUHU216HW,2013-01-14 19:33:00,
2013-01-14 11:38:00,34.4,30.0,30.35,South,180,1.1,2.2,84,0.00,,,0.00,WUHU216HW,2013-01-14 19:38:00,
2013-01-14 11:43:00,34.4,30.2,30.34,SW,225,0.0,2.2,85,0.00,,,0.00,WUHU216HW,2013-01-14 19:43:00,
2013-01-14 11:48:00,34.7,30.6,30.35,SE,135,0.0,1.1,85,0.00,,,0.00,WUHU216HW,2013-01-14 19:48:00,
2013-01-14 11:53:00,34.9,30.5,30.34,WSW,248,0.4,1.6,84,0.00,,,0.00,WUHU216HW,2013-01-14 19:53:00,
2013-01-14 11:58:00,34.9,30.5,30.34,SSW,203,0.7,1.6,84,0.00,,,0.00,WUHU216HW,2013-01-14 19:58:00,
2013-01-14 12:03:00,35.1,30.7,30.34,SSE,158,0.0,1.1,84,0.00,,,0.00,WUHU216HW,2013-01-14 20:03:00,
2013-01-14 12:08:00,35.1,30.7,30.35,WSW,248,0.4,1.1,84,0.00,,,0.00,WUHU216HW,2013-01-14 20:08:00,
2013-01-14 12:13:00,34.9,30.5,30.35,WSW,248,0.4,1.3,84,0.00,,,0.00,WUHU216HW,2013-01-14 20:13:00,
2013-01-14 12:18:00,35.1,30.4,30.35,WSW,248,0.4,1.3,83,0.00,,,0.00,WUHU216HW,2013-01-14 20:18:00,
2013-01-14 12:23:00,35.1,30.4,30.35,SSW,203,0.7,1.6,83,0.00,,,0.00,WUHU216HW,2013-01-14 20:23:00,
2013-01-14 12:28:00,35.3,30.0,30.35,SSE,158,0.4,1.6,81,0.00,,,0.00,WUHU216HW,2013-01-14 20:28:00,
2013-01-14 12:33:00,35.6,30.6,30.35,North,0,0.0,0.9,82,0.00,,,0.00,WUHU216HW,2013-01-14 20:33:00,
2013-01-14 12:38:00,35.6,30.1,30.35,NNE,23,0.0,0.4,80,0.00,,,0.00,WUHU216HW,2013-01-14 20:38:00,
2013-01-14 12:43:00,35.6,30.3,30.35,NW,315,0.0,0.9,81,0.00,,,0.00,WUHU216HW,2013-01-14 20:43:00,
2013-01-14 12:48:00,35.6,30.1,30.35,WSW,248,0.0,0.9,80,0.00,,,0.00,WUHU216HW,2013-01-14 20:48:00,
2013-01-14 12:53:00,35.6,30.1,30.35,West,270,0.0,0.4,80,0.00,,,0.00,WUHU216HW,2013-01-14 20:53:00,
2013-01-14 12:58:00,35.6,29.4,30.35,WSW,248,0.0,1.1,78,0.00,,,0.00,WUHU216HW,2013-01-14 20:58:00,
2013-01-14 13:03:00,36.0,30.1,30.35,South,180,0.0,1.1,79,0.00,,,0.00,WUHU216HW,2013-01-14 21:03:00,
2013-01-14 13:08:00,36.2,30.6,30.35,WSW,248,0.0,0.2,80,0.00,,,0.00,WUHU216HW,2013-01-14 21:08:00,
2013-01-14 13:13:00,36.4,30.4,30.35,NNW,338,1.3,1.3,79,0.00,,,0.00,WUHU216HW,2013-01-14 21:13:00,
2013-01-14 13:18:00,36.4,30.4,30.35,WSW,248,0.7,1.3,79,0.00,,,0.00,WUHU216HW,2013-01-14 21:18:00,
2013-01-14 13:23:00,36.5,30.3,30.35,SW,225,0.7,1.3,78,0.00,,,0.00,WUHU216HW,2013-01-14 21:23:00,
2013-01-14 13:28:00,36.7,30.5,30.35,WSW,248,0.0,1.1,78,0.00,,,0.00,WUHU216HW,2013-01-14 21:28:00,
2013-01-14 13:33:00,36.7,30.2,30.35,NNW,338,0.0,0.7,77,0.00,,,0.00,WUHU216HW,2013-01-14 21:33:00,
2013-01-14 13:38:00,36.9,30.7,30.35,WNW,293,0.4,0.7,78,0.00,,,0.00,WUHU216HW,2013-01-14 21:38:00,
2013-01-14 13:43:00,37.1,30.9,30.35,NNW,338,0.0,1.3,78,0.00,,,0.00,WUHU216HW,2013-01-14 21:43:00,
2013-01-14 13:48:00,37.1,30.5,30.35,West,270,0.9,1.3,77,0.00,,,0.00,WUHU216HW,2013-01-14 21:48:00,
2013-01-14 13:53:00,37.3,31.1,30.35,NW,315,1.1,1.1,78,0.00,,,0.00,WUHU216HW,2013-01-14 21:53:00,
2013-01-14 13:58:00,37.3,30.7,30.35,ENE,68,0.2,1.1,77,0.00,,,0.00,WUHU216HW,2013-01-14 21:58:00,
2013-01-14 14:03:00,37.6,31.1,30.35,SSE,158,0.9,1.1,77,0.00,,,0.00,WUHU216HW,2013-01-14 22:03:00,
2013-01-14 14:08:00,37.8,30.9,30.35,SW,225,1.1,1.8,76,0.00,,,0.00,WUHU216HW,2013-01-14 22:08:00,
2013-01-14 14:13:00,37.8,31.2,30.35,SW,225,0.0,1.8,77,0.00,,,0.00,WUHU216HW,2013-01-14 22:13:00,
2013-01-14 14:18:00,37.4,30.6,30.35,NW,315,0.4,1.1,76,0.00,,,0.00,WUHU216HW,2013-01-14 22:18:00,
2013-01-14 14:23:00,37.4,30.6,30.35,SW,225,0.7,1.1,76,0.00,,,0.00,WUHU216HW,2013-01-14 22:23:00,
2013-01-14 14:28:00,37.6,30.8,30.35,WNW,293,0.0,1.1,76,0.00,,,0.00,WUHU216HW,2013-01-14 22:28:00,
2013-01-14 14:33:00,37.8,31.2,30.35,SSW,203,0.9,1.1,77,0.00,,,0.00,WUHU216HW,2013-01-14 22:33:00,
2013-01-14 14:38:00,37.8,30.2,30.35,SSE,158,0.0,1.1,74,0.00,,,0.00,WUHU216HW,2013-01-14 22:38:00,
2013-01-14 14:43:00,37.6,30.1,30.35,NNE,23,0.0,0.9,74,0.00,,,0.00,WUHU216HW,2013-01-14 22:43:00,
2013-01-14 14:48:00,37.6,30.8,30.35,SE,135,0.0,0.4,76,0.00,,,0.00,WUHU216HW,2013-01-14 22:48:00,
2013-01-14 14:53:00,37.6,30.4,30.35,SW,225,0.4,0.7,75,0.00,,,0.00,WUHU216HW,2013-01-14 22:53:00,
2013-01-14 14:58:00,37.8,30.6,30.35,NW,315,0.2,0.7,75,0.00,,,0.00,WUHU216HW,2013-01-14 22:58:00,
2013-01-14 15:03:00,37.8,30.6,30.36,WNW,293,0.4,0.4,75,0.00,,,0.00,WUHU216HW,2013-01-14 23:03:00,
2013-01-14 15:08:00,37.6,30.1,30.35,North,0,0.0,0.4,74,0.00,,,0.00,WUHU216HW,2013-01-14 23:08:00,
2013-01-14 15:13:00,37.4,29.6,30.36,North,0,0.0,0.4,73,0.00,,,0.00,WUHU216HW,2013-01-14 23:13:00,
2013-01-14 15:18:00,37.3,29.4,30.36,WNW,293,0.9,0.9,73,0.00,,,0.00,WUHU216HW,2013-01-14 23:18:00,
2013-01-14 15:23:00,37.1,28.9,30.36,North,0,0.4,1.1,72,0.00,,,0.00,WUHU216HW,2013-01-14 23:23:00,
2013-01-14 15:28:00,37.3,29.4,30.36,NNE,23,0.0,1.1,73,0.00,,,0.00,WUHU216HW,2013-01-14 23:28:00,
2013-01-14 15:33:00,37.6,30.1,30.36,NNW,338,0.7,1.1,74,0.00,,,0.00,WUHU216HW,2013-01-14 23:33:00,
2013-01-14 15:38:00,38.0,30.4,30.36,South,180,0.0,1.1,74,0.00,,,0.00,WUHU216HW,2013-01-14 23:38:00,
2013-01-14 15:43:00,38.2,31.0,30.36,SSW,203,0.0,0.7,75,0.00,,,0.00,WUHU216HW,2013-01-14 23:43:00,
2013-01-14 15:48:00,37.8,30.6,30.36,North,0,0.0,0.4,75,0.00,,,0.00,WUHU216HW,2013-01-14 23:48:00,
2013-01-14 15:53:00,37.8,30.6,30.36,NE,45,0.0,0.4,75,0.00,,,0.00,WUHU216HW,2013-01-14 23:53:00,
2013-01-14 15:58:00,37.6,30.8,30.36,NE,45,0.0,0.4,76,0.00,,,0.00,WUHU216HW,2013-01-14 23:58:00,
2013-01-14 16:03:00,37.6,30.8,30.36,NW,315,0.0,0.0,76,0.00,,,0.00,WUHU216HW,2013-01-15 00:03:00,
2013-01-14 16:08:00,37.6,31.1,30.36,NNW,338,0.0,0.0,77,0.00,,,0.00,WUHU216HW,2013-01-15 00:08:00,
2013-01-14 16:13:00,37.3,30.7,30.36,NNE,23,0.0,0.2,77,0.00,,,0.00,WUHU216HW,2013-01-15 00:13:00,
2013-01-14 16:18:00,36.9,30.3,30.35,North,0,0.0,0.2,77,0.00,,,0.00,WUHU216HW,2013-01-15 00:18:00,
2013-01-14 16:23:00,36.5,30.0,30.35,East,90,0.4,0.4,77,0.00,,,0.00,WUHU216HW,2013-01-15 00:23:00,
2013-01-14 16:28:00,36.2,30.0,30.35,East,90,0.0,0.4,78,0.00,,,0.00,WUHU216HW,2013-01-15 00:28:00,
2013-01-14 16:33:00,35.6,29.7,30.35,East,90,0.0,0.4,79,0.00,,,0.00,WUHU216HW,2013-01-15 00:33:00,
2013-01-14 16:38:00,34.9,29.9,30.35,ENE,68,0.9,0.9,82,0.00,,,0.00,WUHU216HW,2013-01-15 00:38:00,
2013-01-14 16:43:00,34.6,29.9,30.35,ENE,68,0.4,0.9,83,0.00,,,0.00,WUHU216HW,2013-01-15 00:43:00,
2013-01-14 16:48:00,34.2,29.5,30.35,ENE,68,0.7,0.9,83,0.00,,,0.00,WUHU216HW,2013-01-15 00:48:00,
2013-01-14 16:53:00,34.0,29.6,30.35,ENE,68,0.0,0.9,84,0.00,,,0.00,WUHU216HW,2013-01-15 00:53:00,
2013-01-14 16:58:00,33.7,29.3,30.36,NE,45,0.0,0.4,84,0.00,,,0.00,WUHU216HW,2013-01-15 00:58:00,
2013-01-14 17:03:00,33.5,29.1,30.36,NE,45,0.0,0.0,84,0.00,,,0.00,WUHU216HW,2013-01-15 01:03:00,
2013-01-14 17:08:00,33.1,28.8,30.37,ESE,113,0.0,0.0,84,0.00,,,0.00,WUHU216HW,2013-01-15 01:08:00,
2013-01-14 17:13:00,32.8,28.7,30.36,NNE,23,0.9,0.9,85,0.00,,,0.00,WUHU216HW,2013-01-15 01:13:00,
2013-01-14 17:18:00,32.8,29.0,30.37,NE,45,0.2,0.9,86,0.00,,,0.00,WUHU216HW,2013-01-15 01:18:00,
2013-01-14 17:23:00,32.6,29.2,30.37,ENE,68,0.4,0.9,87,0.00,,,0.00,WUHU216HW,2013-01-15 01:23:00,
2013-01-14 17:28:00,32.4,28.7,30.37,ENE,68,0.0,0.7,86,0.00,,,0.00,WUHU216HW,2013-01-15 01:28:00,
2013-01-14 17:33:00,32.4,28.7,30.37,ENE,68,0.0,0.4,86,0.00,,,0.00,WUHU216HW,2013-01-15 01:33:00,
2013-01-14 17:38:00,32.4,28.7,30.37,ESE,113,0.0,0.0,86,0.00,,,0.00,WUHU216HW,2013-01-15 01:38:00,
2013-01-14 17:43:00,32.4,28.7,30.37,ESE,113,0.0,0.0,86,0.00,,,0.00,WUHU216HW,2013-01-15 01:43:00,
2013-01-14 17:48:00,32.4,28.7,30.36,ESE,113,0.0,0.0,86,0.00,,,0.00,WUHU216HW,2013-01-15 01:48:00,
2013-01-14 17:53:00,32.2,28.5,30.36,ESE,113,0.0,0.0,86,0.00,,,0.00,WUHU216HW,2013-01-15 01:53:00,
2013-01-14 17:58:00,32.0,28.4,30.36,ESE,113,0.0,0.0,86,0.00,,,0.00,WUHU216HW,2013-01-15 01:58:00,
2013-01-14 18:03:00,32.0,28.4,30.36,ESE,113,0.0,0.0,86,0.00,,,0.00,WUHU216HW,2013-01-15 02:03:00,
2013-01-14 18:08:00,32.0,28.4,30.36,SE,135,0.0,0.0,86,0.00,,,0.00,WUHU216HW,2013-01-15 02:08:00,
2013-01-14 18:13:00,32.0,28.6,30.37,South,180,0.0,0.0,87,0.00,,,0.00,WUHU216HW,2013-01-15 02:13:00,
2013-01-14 18:18:00,32.0,29.3,30.37,South,180,0.0,0.0,89,0.00,,,0.00,WUHU216HW,2013-01-15 02:18:00,
2013-01-14 18:23:00,32.0,29.3,30.37,ESE,113,0.0,0.0,89,0.00,,,0.00,WUHU216HW,2013-01-15 02:23:00,
2013-01-14 18:28:00,32.0,29.0,30.37,ESE,113,0.0,0.0,88,0.00,,,0.00,WUHU216HW,2013-01-15 02:28:00,
2013-01-14 18:33:00,32.0,29.0,30.36,ESE,113,0.0,0.0,88,0.00,,,0.00,WUHU216HW,2013-01-15 02:33:00,
2013-01-14 18:38:00,32.0,29.0,30.37,ESE,113,0.0,0.0,88,0.00,,,0.00,WUHU216HW,2013-01-15 02:38:00,
2013-01-14 18:43:00,32.0,29.0,30.37,ESE,113,0.0,0.0,88,0.00,,,0.00,WUHU216HW,2013-01-15 02:43:00,
2013-01-14 18:48:00,32.0,29.3,30.37,NNE,23,0.0,0.0,89,0.00,,,0.00,WUHU216HW,2013-01-15 02:48:00,
2013-01-14 18:53:00,32.0,29.3,30.37,NNE,23,0.0,0.0,89,0.00,,,0.00,WUHU216HW,2013-01-15 02:53:00,
2013-01-14 18:58:00,31.9,29.1,30.37,NNE,23,0.0,0.0,89,0.00,,,0.00,WUHU216HW,2013-01-15 02:58:00,
2013-01-14 19:03:00,31.9,29.1,30.37,NNE,23,0.0,0.0,89,0.00,,,0.00,WUHU216HW,2013-01-15 03:03:00,
2013-01-14 19:08:00,31.9,29.1,30.37,East,90,0.0,0.0,89,0.00,,,0.00,WUHU216HW,2013-01-15 03:08:00,
2013-01-14 19:13:00,31.7,28.9,30.38,East,90,0.0,0.0,89,0.00,,,0.00,WUHU216HW,2013-01-15 03:13:00,
2013-01-14 19:18:00,31.7,28.9,30.38,East,90,0.0,0.0,89,0.00,,,0.00,WUHU216HW,2013-01-15 03:18:00,
2013-01-14 19:23:00,31.7,28.9,30.38,North,0,0.9,1.1,89,0.00,,,0.00,WUHU216HW,2013-01-15 03:23:00,
2013-01-14 19:28:00,31.7,28.9,30.38,North,0,0.0,1.1,89,0.00,,,0.00,WUHU216HW,2013-01-15 03:28:00,
2013-01-14 19:33:00,31.9,29.1,30.38,North,0,0.0,1.1,89,0.00,,,0.00,WUHU216HW,2013-01-15 03:33:00,
2013-01-14 19:38:00,31.7,29.2,30.38,North,0,0.0,0.0,90,0.00,,,0.00,WUHU216HW,2013-01-15 03:38:00,
2013-01-14 19:43:00,31.9,29.1,30.38,SSW,203,0.0,0.4,89,0.00,,,0.00,WUHU216HW,2013-01-15 03:43:00,
2013-01-14 19:48:00,31.9,29.3,30.38,SSW,203,0.0,0.4,90,0.00,,,0.00,WUHU216HW,2013-01-15 03:48:00,
2013-01-14 19:53:00,31.9,29.1,30.38,SSE,158,0.4,0.4,89,0.00,,,0.00,WUHU216HW,2013-01-15 03:53:00,
2013-01-14 19:58:00,31.9,29.1,30.38,SSE,158,0.0,0.4,89,0.00,,,0.00,WUHU216HW,2013-01-15 03:58:00,
2013-01-14 20:03:00,31.9,29.1,30.39,SSE,158,0.0,0.4,89,0.00,,,0.00,WUHU216HW,2013-01-15 04:03:00,
2013-01-14 20:08:00,31.9,29.3,30.39,SSE,158,0.0,0.0,90,0.00,,,0.00,WUHU216HW,2013-01-15 04:08:00,
2013-01-14 20:13:00,31.9,29.3,30.39,SSE,158,0.0,0.0,90,0.00,,,0.00,WUHU216HW,2013-01-15 04:13:00,
2013-01-14 20:18:00,31.9,29.1,30.39,SSE,158,0.0,0.0,89,0.00,,,0.00,WUHU216HW,2013-01-15 04:18:00,
2013-01-14 20:23:00,31.9,29.1,30.39,NNE,23,0.0,0.0,89,0.00,,,0.00,WUHU216HW,2013-01-15 04:23:00,
2013-01-14 20:28:00,31.7,28.9,30.39,ENE,68,0.0,0.0,89,0.00,,,0.00,WUHU216HW,2013-01-15 04:28:00,
2013-01-14 20:33:00,31.7,28.9,30.39,SSW,203,0.0,0.0,89,0.00,,,0.00,WUHU216HW,2013-01-15 04:33:00,
2013-01-14 20:38:00,31.7,28.9,30.40,SSW,203,0.0,0.0,89,0.00,,,0.00,WUHU216HW,2013-01-15 04:38:00,
2013-01-14 20:43:00,31.7,28.9,30.40,NW,315,0.0,0.0,89,0.00,,,0.00,WUHU216HW,2013-01-15 04:43:00,
2013-01-14 20:48:00,31.7,28.9,30.40,NW,315,0.0,0.0,89,0.00,,,0.00,WUHU216HW,2013-01-15 04:48:00,
2013-01-14 20:53:00,31.7,28.9,30.40,NW,315,0.0,0.0,89,0.00,,,0.00,WUHU216HW,2013-01-15 04:53:00,
2013-01-14 20:58:00,31.7,29.2,30.40,NW,315,0.0,0.0,90,0.00,,,0.00,WUHU216HW,2013-01-15 04:58:00,
2013-01-14 21:00:00,31.7,29.2,30.40,NW,315,0.0,0.0,90,0.00,,,0.00,WUHU216HW,2013-01-15 05:00:00,
2013-01-14 21:01:00,31.7,29.2,30.40,NW,315,0.0,0.0,90,0.00,,,0.00,WUHU216HW,2013-01-15 05:01:00,
2013-01-14 21:03:00,31.9,29.3,30.40,NW,315,0.0,0.0,90,0.00,,,0.00,WUHU216HW,2013-01-15 05:03:00,
2013-01-14 21:08:00,31.7,28.9,30.40,SSW,203,0.0,0.0,89,0.00,,,0.00,WUHU216HW,2013-01-15 05:08:00,
2013-01-14 21:13:00,31.9,29.1,30.39,SSW,203,0.0,0.0,89,0.00,,,0.00,WUHU216HW,2013-01-15 05:13:00,
2013-01-14 21:18:00,31.9,29.1,30.39,SSW,203,0.0,0.0,89,0.00,,,0.00,WUHU216HW,2013-01-15 05:18:00,
2013-01-14 21:23:00,31.9,29.3,30.39,SSW,203,0.0,0.0,90,0.00,,,0.00,WUHU216HW,2013-01-15 05:23:00,
2013-01-14 21:28:00,31.9,29.3,30.39,SSW,203,0.0,0.0,90,0.00,,,0.00,WUHU216HW,2013-01-15 05:28:00,
2013-01-14 21:33:00,31.9,29.3,30.39,SSW,203,0.0,0.0,90,0.00,,,0.00,WUHU216HW,2013-01-15 05:33:00,
2013-01-14 21:38:00,31.9,29.3,30.39,SSW,203,0.0,0.0,90,0.00,,,0.00,WUHU216HW,2013-01-15 05:38:00,
2013-01-14 21:43:00,31.7,29.2,30.39,SSW,203,0.0,0.0,90,0.00,,,0.00,WUHU216HW,2013-01-15 05:43:00,
2013-01-14 21:48:00,31.7,29.2,30.39,SSW,203,0.0,0.0,90,0.00,,,0.00,WUHU216HW,2013-01-15 05:48:00,
2013-01-14 21:53:00,31.7,29.2,30.39,SSW,203,0.0,0.0,90,0.00,,,0.00,WUHU216HW,2013-01-15 05:53:00,
2013-01-14 21:58:00,31.7,29.2,30.39,SSW,203,0.0,0.0,90,0.00,,,0.00,WUHU216HW,2013-01-15 05:58:00,
2013-01-14 22:03:00,31.5,29.0,30.39,SSW,203,0.0,0.0,90,0.00,,,0.00,WUHU216HW,2013-01-15 06:03:00,
2013-01-14 22:08:00,31.5,29.0,30.39,SSW,203,0.0,0.0,90,0.00,,,0.00,WUHU216HW,2013-01-15 06:08:00,
2013-01-14 22:13:00,31.5,29.0,30.39,SSW,203,0.0,0.0,90,0.00,,,0.00,WUHU216HW,2013-01-15 06:13:00,
2013-01-14 22:18:00,31.5,29.0,30.39,SSW,203,0.0,0.0,90,0.00,,,0.00,WUHU216HW,2013-01-15 06:18:00,
2013-01-14 22:23:00,31.5,29.3,30.39,SSW,203,0.0,0.0,91,0.00,,,0.00,WUHU216HW,2013-01-15 06:23:00,
2013-01-14 22:28:00,31.5,29.0,30.39,SSW,203,0.0,0.0,90,0.00,,,0.00,WUHU216HW,2013-01-15 06:28:00,
2013-01-14 22:33:00,31.5,29.0,30.40,SSE,158,0.0,0.0,90,0.00,,,0.00,WUHU216HW,2013-01-15 06:33:00,
2013-01-14 22:38:00,31.3,28.8,30.40,SSE,158,0.0,0.0,90,0.00,,,0.00,WUHU216HW,2013-01-15 06:38:00,
2013-01-14 22:43:00,31.3,29.1,30.40,SSE,158,0.0,0.0,91,0.00,,,0.00,WUHU216HW,2013-01-15 06:43:00,
2013-01-14 22:48:00,31.1,28.9,30.40,NNE,23,0.0,0.0,91,0.00,,,0.00,WUHU216HW,2013-01-15 06:48:00,
2013-01-14 22:53:00,31.0,28.7,30.40,NNE,23,0.4,0.4,91,0.00,,,0.00,WUHU216HW,2013-01-15 06:53:00,
2013-01-14 22:58:00,30.6,28.4,30.40,NNE,23,0.0,0.4,91,0.00,,,0.00,WUHU216HW,2013-01-15 06:58:00,
2013-01-14 23:03:00,30.6,28.4,30.40,NE,45,0.0,0.2,91,0.00,,,0.00,WUHU216HW,2013-01-15 07:03:00,
2013-01-14 23:08:00,30.2,28.0,30.40,NE,45,0.0,0.0,91,0.00,,,0.00,WUHU216HW,2013-01-15 07:08:00,
2013-01-14 23:13:00,30.1,27.8,30.40,North,0,0.0,0.0,91,0.00,,,0.00,WUHU216HW,2013-01-15 07:13:00,
2013-01-14 23:18:00,30.1,27.8,30.40,NW,315,0.0,0.0,91,0.00,,,0.00,WUHU216HW,2013-01-15 07:18:00,
2013-01-14 23:23:00,30.1,27.8,30.40,WSW,248,0.0,0.0,91,0.00,,,0.00,WUHU216HW,2013-01-15 07:23:00,
2013-01-14 23:28:00,30.2,28.0,30.40,South,180,0.0,0.0,91,0.00,,,0.00,WUHU216HW,2013-01-15 07:28:00,
2013-01-14 23:33:00,30.2,28.0,30.40,South,180,0.9,0.9,91,0.00,,,0.00,WUHU216HW,2013-01-15 07:33:00,
2013-01-14 23:38:00,30.4,28.2,30.40,South,180,0.0,0.9,91,0.00,,,0.00,WUHU216HW,2013-01-15 07:38:00,
2013-01-14 23:43:00,30.4,28.2,30.40,SE,135,0.0,0.9,91,0.00,,,0.00,WUHU216HW,2013-01-15 07:43:00,
2013-01-14 23:48:00,30.4,28.2,30.40,SW,225,0.0,0.0,91,0.00,,,0.00,WUHU216HW,2013-01-15 07:48:00,
2013-01-14 23:53:00,30.2,28.0,30.40,SW,225,0.0,0.0,91,0.00,,,0.00,WUHU216HW,2013-01-15 07:53:00,
2013-01-14 23:58:00,30.2,28.0,30.40,SW,225,0.0,0.0,91,0.00,,,0.00,WUHU216HW,2013-01-15 07:58:00,